User: anonymous   Login
Location: Unspecified
(0.0000°N, 0.0000°E)
Time: 21:52:58
(UTC+00:00)
Language:

POLYITAN 1 - Orbit

View from above orbital plane
View from above orbital plane
View from above satellite
View from above satellite

Ground track
Ground track

The orbit data is extracted from the following two-line orbital elements,

1 40042U 14033AJ  17082.91925554 +.00000543 +00000-0 +65306-4 0  9995
2 40042 097.9244 354.0886 0013963 208.9715 151.0728 14.87959337149234
Epoch (UTC): 23 March 2017 22:03:43
Eccentricity: 0.0013963
inclination: 97.9244°
perigee height: 594 km
apogee height: 614 km
right ascension of ascending node: 354.0886°
argument of perigee: 208.9715°
revolutions per day: 14.87959337
mean anomaly at epoch: 151.0728°
orbit number at epoch: 14923

The dashed part of the orbit path shows where the satellite is in the earth's shadow,  

DLR